Time,TemperatureF,DewpointF,PressureIn,WindDirection,WindDirectionDegrees,WindSpeedMPH,WindSpeedGustMPH,Humidity,HourlyPrecipIn,Conditions,Clouds,dailyrainin,SoftwareType,DateUTC
2013-04-04 00:02:00,40.0,27.0,30.01,SW,215,4.0,13.0,60,0.00,,,0.00,,2013-04-04 05:02:00,
2013-04-04 00:13:00,40.0,27.0,30.01,SW,215,4.0,13.0,60,0.00,,,0.00,,2013-04-04 05:13:00,
2013-04-04 00:23:00,40.0,27.0,30.01,South,173,4.0,14.0,60,0.00,,,0.00,,2013-04-04 05:23:00,
2013-04-04 00:32:00,41.0,29.0,29.99,SW,228,3.0,14.0,62,0.00,,,0.00,,2013-04-04 05:32:00,
2013-04-04 00:42:00,41.0,29.0,29.99,SW,228,3.0,14.0,62,0.00,,,0.00,,2013-04-04 05:42:00,
2013-04-04 00:52:00,41.0,29.0,29.98,SSE,153,3.0,10.0,62,0.00,,,0.00,,2013-04-04 05:52:00,
2013-04-04 01:02:00,41.0,29.0,29.98,SSW,194,5.0,12.0,62,0.00,,,0.00,,2013-04-04 06:02:00,
2013-04-04 01:12:00,41.0,29.0,29.98,SSW,194,5.0,12.0,62,0.00,,,0.00,,2013-04-04 06:12:00,
2013-04-04 01:22:00,42.0,30.0,29.97,South,172,5.0,14.0,62,0.00,,,0.00,,2013-04-04 06:22:00,
2013-04-04 01:32:00,42.0,30.0,29.97,SSW,208,6.0,13.0,61,0.00,,,0.00,,2013-04-04 06:32:00,
2013-04-04 01:42:00,42.0,30.0,29.97,SSW,208,6.0,13.0,61,0.00,,,0.00,,2013-04-04 06:42:00,
2013-04-04 01:52:00,42.0,30.0,29.96,South,169,6.0,16.0,61,0.00,,,0.00,,2013-04-04 06:52:00,
2013-04-04 02:02:00,42.0,30.0,29.96,SSW,203,5.0,13.0,61,0.00,,,0.00,,2013-04-04 07:02:00,
2013-04-04 02:12:00,42.0,30.0,29.96,SSW,203,5.0,13.0,61,0.00,,,0.00,,2013-04-04 07:12:00,
2013-04-04 02:22:00,42.0,29.0,29.96,WSW,248,3.0,15.0,60,0.00,,,0.00,,2013-04-04 07:22:00,
2013-04-04 02:32:00,42.0,29.0,29.95,SSE,148,5.0,17.0,60,0.00,,,0.00,,2013-04-04 07:32:00,
2013-04-04 02:43:00,42.0,29.0,29.95,SSE,148,5.0,17.0,60,0.00,,,0.00,,2013-04-04 07:43:00,
2013-04-04 02:52:00,42.0,30.0,29.96,SW,217,4.0,9.0,61,0.00,,,0.00,,2013-04-04 07:52:00,
2013-04-04 03:02:00,42.0,30.0,29.96,SW,217,4.0,9.0,61,0.00,,,0.00,,2013-04-04 08:02:00,
2013-04-04 03:12:00,42.0,30.0,29.96,SW,217,4.0,9.0,61,0.00,,,0.00,,2013-04-04 08:12:00,
2013-04-04 03:22:00,41.0,29.0,29.95,WSW,256,3.0,11.0,63,0.00,,,0.00,,2013-04-04 08:22:00,
2013-04-04 03:32:00,41.0,29.0,29.95,SW,230,3.0,12.0,63,0.00,,,0.00,,2013-04-04 08:32:00,
2013-04-04 03:43:00,41.0,29.0,29.95,SW,230,3.0,12.0,63,0.00,,,0.00,,2013-04-04 08:43:00,
2013-04-04 03:52:00,41.0,30.0,29.94,SW,223,4.0,8.0,64,0.00,,,0.00,,2013-04-04 08:52:00,
2013-04-04 04:02:00,41.0,30.0,29.95,South,184,2.0,7.0,64,0.00,,,0.00,,2013-04-04 09:02:00,
2013-04-04 04:12:00,41.0,30.0,29.95,South,184,2.0,7.0,64,0.00,,,0.00,,2013-04-04 09:12:00,
2013-04-04 04:22:00,40.0,29.0,29.94,WSW,250,2.0,6.0,65,0.00,,,0.00,,2013-04-04 09:22:00,
2013-04-04 04:33:00,40.0,30.0,29.95,NNW,331,0.0,3.0,67,0.00,,,0.00,,2013-04-04 09:33:00,
2013-04-04 04:43:00,40.0,30.0,29.95,NNW,331,0.0,3.0,67,0.00,,,0.00,,2013-04-04 09:43:00,
2013-04-04 04:53:00,40.0,30.0,29.95,South,174,1.0,3.0,66,0.00,,,0.00,,2013-04-04 09:53:00,
2013-04-04 05:04:00,40.0,30.0,29.95,SW,217,1.0,4.0,66,0.00,,,0.00,,2013-04-04 10:04:00,
2013-04-04 05:12:00,40.0,30.0,29.95,SW,217,1.0,4.0,66,0.00,,,0.00,,2013-04-04 10:12:00,
2013-04-04 05:23:00,41.0,31.0,29.94,West,280,1.0,5.0,66,0.00,,,0.00,,2013-04-04 10:23:00,
2013-04-04 05:33:00,42.0,31.0,29.94,WSW,248,1.0,7.0,65,0.00,,,0.00,,2013-04-04 10:33:00,
2013-04-04 05:42:00,42.0,31.0,29.94,WSW,248,1.0,7.0,65,0.00,,,0.00,,2013-04-04 10:42:00,
2013-04-04 05:53:00,42.0,31.0,29.94,West,259,3.0,7.0,64,0.00,,,0.00,,2013-04-04 10:53:00,
2013-04-04 06:02:00,42.0,31.0,29.94,South,184,3.0,7.0,64,0.00,,,0.00,,2013-04-04 11:02:00,
2013-04-04 06:12:00,42.0,31.0,29.94,South,184,3.0,7.0,64,0.00,,,0.00,,2013-04-04 11:12:00,
2013-04-04 06:22:00,42.0,31.0,29.95,West,262,2.0,7.0,65,0.00,,,0.00,,2013-04-04 11:22:00,
2013-04-04 06:33:00,42.0,31.0,29.95,South,182,1.0,7.0,66,0.00,,,0.00,,2013-04-04 11:33:00,
2013-04-04 06:42:00,42.0,31.0,29.95,South,182,1.0,7.0,66,0.00,,,0.00,,2013-04-04 11:42:00,
2013-04-04 06:53:00,42.0,31.0,29.96,West,271,2.0,7.0,66,0.00,,,0.00,,2013-04-04 11:53:00,
2013-04-04 07:02:00,42.0,32.0,29.96,NW,321,2.0,7.0,67,0.00,,,0.00,,2013-04-04 12:02:00,
2013-04-04 07:12:00,42.0,32.0,29.96,NW,321,2.0,7.0,67,0.00,,,0.00,,2013-04-04 12:12:00,
2013-04-04 07:22:00,42.0,32.0,29.96,SSW,213,2.0,7.0,68,0.00,,,0.00,,2013-04-04 12:22:00,
2013-04-04 07:32:00,41.0,32.0,29.97,West,265,1.0,7.0,69,0.00,,,0.00,,2013-04-04 12:32:00,
2013-04-04 07:43:00,41.0,32.0,29.97,West,265,1.0,7.0,69,0.00,,,0.00,,2013-04-04 12:43:00,
2013-04-04 07:52:00,41.0,32.0,29.97,WNW,283,1.0,6.0,69,0.00,,,0.00,,2013-04-04 12:52:00,
2013-04-04 08:02:00,42.0,33.0,29.97,West,263,3.0,6.0,69,0.00,,,0.00,,2013-04-04 13:02:00,
2013-04-04 08:12:00,42.0,33.0,29.97,West,263,3.0,6.0,69,0.00,,,0.00,,2013-04-04 13:12:00,
2013-04-04 08:22:00,42.0,33.0,29.98,NW,322,2.0,6.0,70,0.00,,,0.00,,2013-04-04 13:22:00,
2013-04-04 08:32:00,42.0,33.0,29.98,NNW,337,1.0,3.0,71,0.00,,,0.00,,2013-04-04 13:32:00,
2013-04-04 08:42:00,42.0,33.0,29.98,NNW,337,1.0,3.0,71,0.00,,,0.00,,2013-04-04 13:42:00,
2013-04-04 08:52:00,42.0,33.0,29.98,WNW,301,2.0,5.0,71,0.00,,,0.00,,2013-04-04 13:52:00,
2013-04-04 09:03:00,42.0,33.0,29.99,West,272,2.0,5.0,70,0.00,,,0.00,,2013-04-04 14:03:00,
2013-04-04 09:12:00,42.0,33.0,29.99,West,272,2.0,5.0,70,0.00,,,0.00,,2013-04-04 14:12:00,
2013-04-04 09:22:00,42.0,34.0,29.99,NNW,342,2.0,5.0,72,0.00,,,0.00,,2013-04-04 14:22:00,
2013-04-04 09:32:00,42.0,33.0,29.99,NNE,16,2.0,4.0,71,0.00,,,0.00,,2013-04-04 14:32:00,
2013-04-04 09:42:00,42.0,33.0,29.99,NNE,16,2.0,4.0,71,0.00,,,0.00,,2013-04-04 14:42:00,
2013-04-04 09:52:00,42.0,33.0,29.99,NNE,16,2.0,4.0,71,0.00,,,0.00,,2013-04-04 14:52:00,
2013-04-04 10:02:00,42.0,33.0,30.00,West,259,1.0,5.0,71,0.00,,,0.00,,2013-04-04 15:02:00,
2013-04-04 10:12:00,42.0,33.0,30.00,West,259,1.0,5.0,71,0.00,,,0.00,,2013-04-04 15:12:00,
2013-04-04 10:23:00,42.0,33.0,30.01,WNW,290,1.0,6.0,69,0.00,,,0.00,,2013-04-04 15:23:00,
2013-04-04 10:33:00,43.0,32.0,30.01,WNW,302,2.0,5.0,66,0.00,,,0.00,,2013-04-04 15:33:00,
2013-04-04 10:43:00,43.0,32.0,30.01,WNW,302,2.0,5.0,66,0.00,,,0.00,,2013-04-04 15:43:00,
2013-04-04 10:53:00,44.0,32.0,30.01,North,360,1.0,5.0,63,0.00,,,0.00,,2013-04-04 15:53:00,
2013-04-04 11:03:00,44.0,29.0,30.01,North,355,2.0,6.0,56,0.00,,,0.00,,2013-04-04 16:03:00,
2013-04-04 11:12:00,44.0,29.0,30.01,North,355,2.0,6.0,56,0.00,,,0.00,,2013-04-04 16:12:00,
2013-04-04 11:32:00,45.0,28.0,30.01,NE,40,2.0,5.0,51,0.00,,,0.00,,2013-04-04 16:32:00,
2013-04-04 11:42:00,45.0,28.0,30.01,NE,40,2.0,5.0,51,0.00,,,0.00,,2013-04-04 16:42:00,
2013-04-04 11:53:00,46.0,27.0,30.01,North,5,3.0,9.0,48,0.00,,,0.00,,2013-04-04 16:53:00,
2013-04-04 12:03:00,46.0,29.0,30.01,WSW,257,1.0,6.0,51,0.00,,,0.00,,2013-04-04 17:03:00,
2013-04-04 12:13:00,46.0,29.0,30.01,WSW,257,1.0,6.0,51,0.00,,,0.00,,2013-04-04 17:13:00,
2013-04-04 12:22:00,45.0,27.0,30.01,SW,236,3.0,6.0,50,0.00,,,0.00,,2013-04-04 17:22:00,
2013-04-04 12:33:00,46.0,27.0,30.01,West,271,3.0,8.0,48,0.00,,,0.00,,2013-04-04 17:33:00,
2013-04-04 12:42:00,46.0,27.0,30.01,West,271,3.0,8.0,48,0.00,,,0.00,,2013-04-04 17:42:00,
2013-04-04 12:52:00,47.0,28.0,30.01,NNW,329,4.0,10.0,48,0.00,,,0.00,,2013-04-04 17:52:00,
2013-04-04 13:02:00,45.0,27.0,30.02,NW,325,4.0,9.0,50,0.00,,,0.00,,2013-04-04 18:02:00,
2013-04-04 13:12:00,45.0,27.0,30.02,NW,325,4.0,9.0,50,0.00,,,0.00,,2013-04-04 18:12:00,
2013-04-04 13:22:00,45.0,29.0,30.02,NW,325,3.0,7.0,54,0.00,,,0.00,,2013-04-04 18:22:00,
2013-04-04 13:32:00,45.0,30.0,30.02,WNW,299,3.0,11.0,55,0.00,,,0.00,,2013-04-04 18:32:00,
2013-04-04 13:43:00,45.0,30.0,30.02,WNW,299,3.0,11.0,55,0.00,,,0.00,,2013-04-04 18:43:00,
2013-04-04 13:52:00,45.0,30.0,30.02,NW,325,3.0,7.0,56,0.00,,,0.00,,2013-04-04 18:52:00,
2013-04-04 14:02:00,46.0,31.0,30.03,West,278,2.0,7.0,55,0.00,,,0.00,,2013-04-04 19:02:00,
2013-04-04 14:12:00,46.0,31.0,30.03,West,278,2.0,7.0,55,0.00,,,0.00,,2013-04-04 19:12:00,
2013-04-04 14:22:00,45.0,29.0,30.03,NW,317,3.0,9.0,54,0.00,,,0.00,,2013-04-04 19:22:00,
2013-04-04 14:32:00,46.0,28.0,30.03,NNW,348,3.0,11.0,50,0.00,,,0.00,,2013-04-04 19:32:00,
2013-04-04 14:42:00,46.0,28.0,30.03,NNW,348,3.0,11.0,50,0.00,,,0.00,,2013-04-04 19:42:00,
2013-04-04 14:52:00,46.0,28.0,30.03,West,276,3.0,10.0,50,0.00,,,0.00,,2013-04-04 19:52:00,
2013-04-04 15:03:00,47.0,28.0,30.03,WNW,296,3.0,8.0,48,0.00,,,0.00,,2013-04-04 20:03:00,
2013-04-04 15:12:00,47.0,28.0,30.03,WNW,296,3.0,8.0,48,0.00,,,0.00,,2013-04-04 20:12:00,
2013-04-04 15:22:00,46.0,26.0,30.03,NW,326,3.0,9.0,46,0.00,,,0.00,,2013-04-04 20:22:00,
2013-04-04 15:32:00,46.0,25.0,30.03,NNW,335,3.0,7.0,44,0.00,,,0.00,,2013-04-04 20:32:00,
2013-04-04 15:42:00,46.0,25.0,30.03,NNW,335,3.0,7.0,44,0.00,,,0.00,,2013-04-04 20:42:00,
2013-04-04 15:53:00,47.0,26.0,30.03,WNW,289,3.0,9.0,44,0.00,,,0.00,,2013-04-04 20:53:00,
2013-04-04 16:02:00,46.0,26.0,30.03,NW,306,2.0,8.0,46,0.00,,,0.00,,2013-04-04 21:02:00,
2013-04-04 16:12:00,46.0,26.0,30.03,NW,306,2.0,8.0,46,0.00,,,0.00,,2013-04-04 21:12:00,
2013-04-04 16:22:00,47.0,26.0,30.03,WSW,254,2.0,11.0,43,0.00,,,0.00,,2013-04-04 21:22:00,
2013-04-04 16:32:00,46.0,25.0,30.03,NW,324,3.0,10.0,44,0.00,,,0.00,,2013-04-04 21:32:00,
2013-04-04 16:43:00,46.0,25.0,30.03,NW,324,3.0,10.0,44,0.00,,,0.00,,2013-04-04 21:43:00,
2013-04-04 16:52:00,46.0,25.0,30.03,NW,323,3.0,10.0,43,0.00,,,0.00,,2013-04-04 21:52:00,
2013-04-04 17:03:00,46.0,26.0,30.03,NNE,24,2.0,6.0,45,0.00,,,0.00,,2013-04-04 22:03:00,
2013-04-04 17:12:00,46.0,26.0,30.03,NNE,24,2.0,6.0,45,0.00,,,0.00,,2013-04-04 22:12:00,
2013-04-04 17:23:00,46.0,23.0,30.03,NNW,340,2.0,6.0,40,0.00,,,0.00,,2013-04-04 22:23:00,
2013-04-04 17:33:00,45.0,23.0,30.04,NNW,332,2.0,7.0,42,0.00,,,0.00,,2013-04-04 22:33:00,
2013-04-04 17:42:00,45.0,23.0,30.04,NNW,332,2.0,7.0,42,0.00,,,0.00,,2013-04-04 22:42:00,
2013-04-04 17:53:00,45.0,23.0,30.04,NNE,26,2.0,7.0,41,0.00,,,0.00,,2013-04-04 22:53:00,
2013-04-04 18:02:00,44.0,25.0,30.05,North,355,1.0,5.0,46,0.00,,,0.00,,2013-04-04 23:02:00,
2013-04-04 18:12:00,44.0,25.0,30.05,North,355,1.0,5.0,46,0.00,,,0.00,,2013-04-04 23:12:00,
2013-04-04 18:22:00,44.0,24.0,30.06,NNE,21,2.0,5.0,45,0.00,,,0.00,,2013-04-04 23:22:00,
2013-04-04 18:32:00,44.0,23.0,30.06,North,350,2.0,6.0,43,0.00,,,0.00,,2013-04-04 23:32:00,
2013-04-04 18:42:00,44.0,23.0,30.06,North,350,2.0,6.0,43,0.00,,,0.00,,2013-04-04 23:42:00,
2013-04-04 18:52:00,43.0,22.0,30.06,NNW,338,2.0,7.0,43,0.00,,,0.00,,2013-04-04 23:52:00,
2013-04-04 19:02:00,42.0,22.0,30.06,East,79,0.0,7.0,45,0.00,,,0.00,,2013-04-05 00:02:00,
2013-04-04 19:12:00,42.0,22.0,30.06,East,79,0.0,7.0,45,0.00,,,0.00,,2013-04-05 00:12:00,
2013-04-04 19:22:00,41.0,22.0,30.07,NNW,340,1.0,3.0,47,0.00,,,0.00,,2013-04-05 00:22:00,
2013-04-04 19:32:00,41.0,21.0,30.07,NW,317,1.0,4.0,45,0.00,,,0.00,,2013-04-05 00:32:00,
2013-04-04 19:42:00,41.0,21.0,30.07,NW,317,1.0,4.0,45,0.00,,,0.00,,2013-04-05 00:42:00,
2013-04-04 19:52:00,41.0,22.0,30.08,North,5,0.0,3.0,46,0.00,,,0.00,,2013-04-05 00:52:00,
2013-04-04 20:02:00,40.0,23.0,30.09,West,277,0.0,4.0,50,0.00,,,0.00,,2013-04-05 01:02:00,
2013-04-04 20:12:00,40.0,23.0,30.09,West,277,0.0,4.0,50,0.00,,,0.00,,2013-04-05 01:12:00,
2013-04-04 20:22:00,39.0,21.0,30.09,West,277,1.0,3.0,49,0.00,,,0.00,,2013-04-05 01:22:00,
2013-04-04 20:32:00,39.0,21.0,30.09,West,277,0.0,3.0,49,0.00,,,0.00,,2013-04-05 01:32:00,
2013-04-04 20:42:00,39.0,21.0,30.09,West,277,0.0,3.0,49,0.00,,,0.00,,2013-04-05 01:42:00,
2013-04-04 20:52:00,38.0,22.0,30.11,NNE,22,1.0,3.0,52,0.00,,,0.00,,2013-04-05 01:52:00,
2013-04-04 21:03:00,38.0,22.0,30.11,NNE,22,1.0,3.0,52,0.00,,,0.00,,2013-04-05 02:03:00,
2013-04-04 21:12:00,38.0,22.0,30.11,NNE,22,1.0,3.0,52,0.00,,,0.00,,2013-04-05 02:12:00,
2013-04-04 21:22:00,37.0,21.0,30.11,NNW,345,2.0,4.0,53,0.00,,,0.00,,2013-04-05 02:22:00,
2013-04-04 21:32:00,37.0,21.0,30.11,NE,38,0.0,3.0,53,0.00,,,0.00,,2013-04-05 02:32:00,
2013-04-04 21:42:00,37.0,21.0,30.11,NE,38,0.0,3.0,53,0.00,,,0.00,,2013-04-05 02:42:00,
2013-04-04 21:52:00,36.0,21.0,30.12,NE,38,0.0,2.0,54,0.00,,,0.00,,2013-04-05 02:52:00,
2013-04-04 22:02:00,35.0,21.0,30.12,NE,38,0.0,2.0,57,0.00,,,0.00,,2013-04-05 03:02:00,
2013-04-04 22:12:00,35.0,21.0,30.12,NE,38,0.0,2.0,57,0.00,,,0.00,,2013-04-05 03:12:00,
2013-04-04 22:32:00,36.0,21.0,30.13,North,5,1.0,4.0,55,0.00,,,0.00,,2013-04-05 03:32:00,
2013-04-04 22:43:00,36.0,21.0,30.13,North,5,1.0,4.0,55,0.00,,,0.00,,2013-04-05 03:43:00,
2013-04-04 22:53:00,35.0,20.0,30.14,North,5,0.0,3.0,55,0.00,,,0.00,,2013-04-05 03:53:00,
2013-04-04 23:02:00,35.0,21.0,30.14,NW,323,0.0,3.0,57,0.00,,,0.00,,2013-04-05 04:02:00,
2013-04-04 23:12:00,35.0,21.0,30.14,NW,323,0.0,3.0,57,0.00,,,0.00,,2013-04-05 04:12:00,
2013-04-04 23:22:00,35.0,22.0,30.15,NW,305,0.0,4.0,58,0.00,,,0.00,,2013-04-05 04:22:00,
2013-04-04 23:32:00,34.0,21.0,30.15,North,5,1.0,3.0,59,0.00,,,0.00,,2013-04-05 04:32:00,
2013-04-04 23:42:00,34.0,21.0,30.15,North,5,1.0,3.0,59,0.00,,,0.00,,2013-04-05 04:42:00,
2013-04-04 23:52:00,34.0,21.0,30.16,North,9,0.0,2.0,59,0.00,,,0.00,,2013-04-05 04:52:00,